Hovedside
METAR-TAF:

METAR-TAF

Lufthavner :

Honningsvåg lufthavn. Valan

Honningsvåg, Norge

breddegrad: 71-01N, lengdegrad: 025-59E, høyde over havet: 1 m

Gjeldene værobservasjon

Denne rapporten ble laget for 2 timer og 12 minutter siden, klokken 10:50 UTC
Vind 3 kt fra skiftende retning
Temperatur 10°C
Luftfuktighet 71%
Trykk 1013 hPa
Sikt 10 km eller mer
Brutte skyer i en høyde av 2600 ft

METAR: ENHV 151050Z VRB03KT 9999 BKN026 10/05 Q1013

Tid: 15:02 (13:02 UTC)


TAF: fraværende

Værobservasjoner og værvarsel for over 4000 flyplasser (METAR- og TAF-rapporter).

Tilgjengelige stasjoner er representert av de røde og gule prikkene på kartet.

Hold musepekeren over prikken for å se navnet på stasjonen.

Klikk så for å se værobservasjoner og -varsler.

For å forandre kartet kan du klikke på den grønne knappen med svart kryss for å zoome inn, på den grønne knappen med strek for å zoome ut, eller på de grønne pilene for å se tilstøtende kart.


METAR-TAF: